This is the latest recevied weather packets stored in our database for station/object HB9TJR-3. If no packets are shown the sender has not sent any weather packets the latest 10 day(s).
| Time | Temp. | Humidity | Pressure | Rain* | Wind** | Luminosity | Snow |
|---|---|---|---|---|---|---|---|
| 1787788771 | 18.33° C | 79% | 867 hPa | 0 mm | - | - | - |
| 1787787811 | 18.33° C | 77% | 867 hPa | 0 mm | - | - | - |
| 1787786851 | 18.33° C | 78% | 866.7 hPa | 0 mm | - | - | - |
| 1787784931 | 18.33° C | 80% | 867 hPa | 0 mm | - | - | - |
| 1787783971 | 18.33° C | 79% | 867 hPa | 0 mm | - | - | - |
| 1787783011 | 18.89° C | 76% | 867 hPa | 0 mm | - | - | - |
| 1787782051 | 18.33° C | 78% | 867.2 hPa | 0 mm | - | - | - |
| 1787781091 | 18.33° C | 77% | 867.3 hPa | 0 mm | - | - | - |
| 1787780131 | 18.33° C | 77% | 867.2 hPa | 0 mm | - | - | - |
| 1787779171 | 18.33° C | 78% | 867.4 hPa | 0 mm | - | - | - |
| 1787778211 | 17.78° C | 80% | 867.6 hPa | 0 mm | - | - | - |
| 1787777251 | 18.33° C | 81% | 867.6 hPa | 0 mm | - | - | - |
| 1787776291 | 17.78° C | 82% | 867.7 hPa | 0 mm | - | - | - |
| 1787775331 | 18.33° C | 80% | 867.8 hPa | 0 mm | - | - | - |
| 1787774371 | 18.33° C | 76% | 867.8 hPa | 0 mm | - | - | - |
| 1787773411 | 18.33° C | 76% | 867.8 hPa | 0 mm | - | - | - |
| 1787772451 | 18.33° C | 78% | 867.8 hPa | 0 mm | - | - | - |
| 1787771491 | 18.33° C | 78% | 867.6 hPa | 0 mm | - | - | - |
| 1787770531 | 18.33° C | 78% | 867.6 hPa | 0 mm | - | - | - |
| 1787769571 | 18.89° C | 79% | 867.6 hPa | 0 mm | - | - | - |
| 1787768611 | 18.89° C | 78% | 867.7 hPa | 0 mm | - | - | - |
| 1787767651 | 18.89° C | 79% | 867.8 hPa | 0 mm | - | - | - |
| 1787766691 | 18.89° C | 80% | 867.8 hPa | 0 mm | - | - | - |
| 1787765731 | 18.89° C | 80% | 867.8 hPa | 0 mm | - | - | - |
| 1787764771 | 19.44° C | 79% | 867.8 hPa | 0 mm | - | - | - |
* Rain latest hour (hover to see other rain measurements)
** Current wind speed in m/s (hover to see current wind gust speed)